Meteo pe oră la Abay

Astăzi, 24 Iulie, Sâmbătă

Timp Temperatura Precipitaţii Vânt Presiune Umiditate
00:00 +14°C° 0 mm 1 m/s 664 mmHg 90%
01:00 +14°C° 0 mm 1 m/s 664 mmHg 91%
02:00 +14°C° 0 mm 1 m/s 664 mmHg 92%
03:00 +14°C° 0 mm 1 m/s 664 mmHg 92%
04:00 +14°C° 0 mm 1 m/s 664 mmHg 92%
05:00 +15°C° 0 mm 1 m/s 665 mmHg 92%
06:00 +15°C° 0 mm 1 m/s 665 mmHg 91%
07:00 +18°C° 0.3 mm 1 m/s 665 mmHg 86%
08:00 +20°C° 0.3 mm 1 m/s 665 mmHg 81%
09:00 +22°C° 0.3 mm 1 m/s 666 mmHg 75%
10:00 +23°C° 0.5 mm 1 m/s 666 mmHg 70%
11:00 +24°C° 0.5 mm 2 m/s 666 mmHg 64%
12:00 +24°C° 0.5 mm 2 m/s 666 mmHg 59%
13:00 +24°C° 0.5 mm 2 m/s 666 mmHg 61%
14:00 +24°C° 0.5 mm 2 m/s 666 mmHg 63%
15:00 +24°C° 0.5 mm 2 m/s 666 mmHg 65%
16:00 +24°C° 0.6 mm 1 m/s 666 mmHg 69%
17:00 +23°C° 0.6 mm 1 m/s 666 mmHg 72%
18:00 +23°C° 0.6 mm 1 m/s 666 mmHg 76%
19:00 +21°C° 0.4 mm 1 m/s 666 mmHg 80%
20:00 +19°C° 0.4 mm 1 m/s 666 mmHg 84%
21:00 +18°C° 0.4 mm 1 m/s 666 mmHg 89%
22:00 +16°C° 0 mm 1 m/s 666 mmHg 90%
23:00 +14°C° 0 mm 0 m/s 666 mmHg 91%

Mâine, 25 Iulie, Duminică

Timp Temperatura Precipitaţii Vânt Presiune Umiditate
00:00 +14°C° 0 mm 0 m/s 666 mmHg 92%
01:00 +13°C° 0 mm 0 m/s 666 mmHg 93%
02:00 +13°C° 0 mm 0 m/s 666 mmHg 93%
03:00 +13°C° 0 mm 0 m/s 666 mmHg 93%
04:00 +13°C° 0 mm 0 m/s 666 mmHg 93%
05:00 +14°C° 0 mm 0 m/s 666 mmHg 93%
06:00 +14°C° 0 mm 0 m/s 667 mmHg 93%
07:00 +16°C° 0 mm 0 m/s 667 mmHg 86%
08:00 +18°C° 0 mm 0 m/s 667 mmHg 79%
09:00 +20°C° 0 mm 0 m/s 667 mmHg 72%
10:00 +23°C° 0 mm 1 m/s 667 mmHg 65%
11:00 +25°C° 0 mm 1 m/s 667 mmHg 57%
12:00 +26°C° 0 mm 1 m/s 667 mmHg 50%
13:00 +26°C° 0 mm 2 m/s 667 mmHg 50%
14:00 +27°C° 0 mm 2 m/s 667 mmHg 49%
15:00 +27°C° 0 mm 2 m/s 667 mmHg 49%
16:00 +26°C° 0 mm 2 m/s 667 mmHg 53%
17:00 +26°C° 0 mm 1 m/s 667 mmHg 58%
18:00 +25°C° 0 mm 1 m/s 667 mmHg 62%
19:00 +23°C° 0 mm 1 m/s 667 mmHg 68%
20:00 +21°C° 0 mm 1 m/s 666 mmHg 75%
21:00 +18°C° 0 mm 1 m/s 666 mmHg 81%
22:00 +16°C° 0 mm 0 m/s 666 mmHg 82%
23:00 +15°C° 0 mm 0 m/s 666 mmHg 84%

Poimâine, 26 Iulie, Luni

Timp Temperatura Precipitaţii Vânt Presiune Umiditate
00:00 +14°C° 0 mm 0 m/s 665 mmHg 85%
01:00 +14°C° 0 mm 0 m/s 665 mmHg 86%
02:00 +13°C° 0 mm 0 m/s 665 mmHg 86%
03:00 +13°C° 0 mm 0 m/s 665 mmHg 87%
04:00 +13°C° 0 mm 0 m/s 665 mmHg 86%
05:00 +15°C° 0 mm 1 m/s 665 mmHg 85%
06:00 +16°C° 0 mm 1 m/s 666 mmHg 84%
07:00 +19°C° 0 mm 1 m/s 666 mmHg 75%
08:00 +22°C° 0 mm 1 m/s 666 mmHg 66%
09:00 +24°C° 0 mm 1 m/s 666 mmHg 57%
10:00 +25°C° 0.1 mm 1 m/s 666 mmHg 54%
11:00 +26°C° 0.1 mm 1 m/s 666 mmHg 50%
12:00 +27°C° 0.1 mm 2 m/s 666 mmHg 47%
13:00 +26°C° 0.4 mm 3 m/s 666 mmHg 52%
14:00 +25°C° 0.4 mm 3 m/s 666 mmHg 58%
15:00 +25°C° 0.4 mm 4 m/s 666 mmHg 64%
16:00 +24°C° 0.5 mm 3 m/s 666 mmHg 68%
17:00 +23°C° 0.5 mm 2 m/s 666 mmHg 73%
18:00 +23°C° 0.5 mm 1 m/s 666 mmHg 77%
19:00 +21°C° 0.3 mm 1 m/s 665 mmHg 82%
20:00 +18°C° 0.3 mm 1 m/s 665 mmHg 86%
21:00 +15°C° 0.3 mm 1 m/s 665 mmHg 90%
22:00 +15°C° 0.1 mm 1 m/s 665 mmHg 91%
23:00 +14°C° 0.1 mm 1 m/s 665 mmHg 91%

27 Iulie, Marţi

Timp Temperatura Precipitaţii Vânt Presiune Umiditate
00:00 +14°C° 0.1 mm 1 m/s 665 mmHg 92%
01:00 +14°C° 0.1 mm 1 m/s 665 mmHg 93%
02:00 +14°C° 0.1 mm 1 m/s 664 mmHg 93%
03:00 +14°C° 0.1 mm 1 m/s 664 mmHg 94%
04:00 +14°C° 0.1 mm 1 m/s 664 mmHg 94%
05:00 +14°C° 0.1 mm 1 m/s 665 mmHg 94%
06:00 +14°C° 0.1 mm 1 m/s 665 mmHg 94%
07:00 +15°C° 0.1 mm 1 m/s 665 mmHg 88%
08:00 +16°C° 0.1 mm 1 m/s 665 mmHg 82%
09:00 +19°C° 0.1 mm 1 m/s 665 mmHg 76%
10:00 +19°C° 0.1 mm 2 m/s 665 mmHg 69%
11:00 +20°C° 0.1 mm 2 m/s 665 mmHg 62%
12:00 +21°C° 0.1 mm 2 m/s 665 mmHg 56%
13:00 +21°C° 0.1 mm 2 m/s 665 mmHg 56%
14:00 +21°C° 0.1 mm 3 m/s 665 mmHg 57%
15:00 +21°C° 0.1 mm 3 m/s 665 mmHg 57%
16:00 +20°C° 0.1 mm 3 m/s 665 mmHg 62%
17:00 +19°C° 0.1 mm 3 m/s 665 mmHg 67%
18:00 +18°C° 0.1 mm 3 m/s 665 mmHg 72%
19:00 +16°C° 0 mm 2 m/s 665 mmHg 77%
20:00 +14°C° 0 mm 2 m/s 665 mmHg 83%
21:00 +13°C° 0 mm 2 m/s 665 mmHg 89%
22:00 +12°C° 0 mm 2 m/s 665 mmHg 90%
23:00 +12°C° 0 mm 2 m/s 665 mmHg 91%

28 Iulie, Miercuri

Timp Temperatura Precipitaţii Vânt Presiune Umiditate
00:00 +12°C° 0 mm 2 m/s 665 mmHg 92%
01:00 +12°C° 0 mm 1 m/s 665 mmHg 93%
02:00 +12°C° 0 mm 1 m/s 665 mmHg 94%
03:00 +11°C° 0 mm 1 m/s 664 mmHg 95%
04:00 +11°C° 0 mm 1 m/s 664 mmHg 94%
05:00 +12°C° 0 mm 1 m/s 664 mmHg 92%
06:00 +12°C° 0 mm 1 m/s 664 mmHg 91%
07:00 +12°C° 0 mm 1 m/s 665 mmHg 87%
08:00 +13°C° 0 mm 1 m/s 665 mmHg 82%
09:00 +14°C° 0 mm 1 m/s 665 mmHg 78%
10:00 +15°C° 0 mm 1 m/s 665 mmHg 73%
11:00 +16°C° 0 mm 1 m/s 665 mmHg 67%
12:00 +18°C° 0 mm 1 m/s 665 mmHg 62%
13:00 +18°C° 0.1 mm 2 m/s 665 mmHg 60%
14:00 +18°C° 0.1 mm 2 m/s 665 mmHg 58%
15:00 +19°C° 0.1 mm 2 m/s 665 mmHg 55%
16:00 +19°C° 0.1 mm 2 m/s 665 mmHg 58%
17:00 +18°C° 0.1 mm 2 m/s 665 mmHg 61%
18:00 +18°C° 0.1 mm 2 m/s 664 mmHg 63%
19:00 +16°C° 0 mm 1 m/s 664 mmHg 72%
20:00 +13°C° 0 mm 1 m/s 664 mmHg 81%
21:00 +11°C° 0 mm 1 m/s 664 mmHg 90%
22:00 +11°C° 0 mm 1 m/s 664 mmHg 91%
23:00 +11°C° 0 mm 1 m/s 664 mmHg 93%

29 Iulie, Joi

Timp Temperatura Precipitaţii Vânt Presiune Umiditate
00:00 +11°C° 0 mm 1 m/s 664 mmHg 94%
01:00 +10°C° 0 mm 1 m/s 664 mmHg 95%
02:00 +10°C° 0 mm 1 m/s 664 mmHg 95%
03:00 +9°C° 0 mm 1 m/s 664 mmHg 96%
04:00 +9°C° 0 mm 0 m/s 664 mmHg 94%
05:00 +9°C° 0 mm 0 m/s 664 mmHg 93%
06:00 +10°C° 0 mm 0 m/s 665 mmHg 92%
07:00 +11°C° 0 mm 0 m/s 665 mmHg 87%
08:00 +12°C° 0 mm 0 m/s 665 mmHg 82%
09:00 +13°C° 0 mm 0 m/s 665 mmHg 77%
10:00 +16°C° 0 mm 1 m/s 665 mmHg 68%
11:00 +19°C° 0 mm 1 m/s 665 mmHg 60%
12:00 +20°C° 0 mm 1 m/s 665 mmHg 51%
13:00 +21°C° 0 mm 1 m/s 665 mmHg 48%
14:00 +21°C° 0 mm 1 m/s 665 mmHg 45%
15:00 +22°C° 0 mm 1 m/s 665 mmHg 43%
16:00 +21°C° 0 mm 1 m/s 665 mmHg 46%
17:00 +21°C° 0 mm 1 m/s 665 mmHg 49%
18:00 +21°C° 0 mm 1 m/s 665 mmHg 52%
19:00 +18°C° 0 mm 1 m/s 665 mmHg 62%
20:00 +15°C° 0 mm 1 m/s 665 mmHg 72%
21:00 +12°C° 0 mm 1 m/s 664 mmHg 81%
22:00 +11°C° 0 mm 1 m/s 664 mmHg 84%
23:00 +10°C° 0 mm 1 m/s 665 mmHg 87%
Arată mai mult

Formular de consimțământ

Meteoprog și furnizorii noștri de servicii pot stoca și accesa date personale, precum cookies, identificatori de dispozitiv sau alte tehnologii similare pe dispozitivul dumneavoastră și procesa astfel de date pentru a personaliza conținutul și reclamele, dar și pentru a oferi caracteristici de social media și pentru a analiza traficul.

  • Stocarea și/sau accesarea informațiilor pe dispozitivul dumneavoastră

    Cookies, identificatori de dispozitiv sau alte informații pot fi stocate sau accesate pe dispozitiv în scopurile indicate mai sus.

  • Reclame și conținut personalizat, evaluarea reclamelor și a conținutului, informații despre audiențe și dezvoltarea produselor

    Reclamele și conținutul pot fi personalizate pe baza unui profil. Pot fi adăugate date suplimentare pentru a personaliza mai bine reclamele și conținutul. Performanța reclamelor și conținutului poate fi măsurată. Pot fi obținute informații despre utilizatorii care au văzut reclamele și conținutul. Aceste date pot fi utilizate pentru a dezvolta sau îmbunătăți experiența utilizatorilor, sistemele și software-ul.

Dând clic pe ‘Sunt de acord’, permiteți utilizarea cookie-urilor menționate, a identificatorilor de dispozitiv, balizelor web sau altor tehnologii similare. Setările pot fi modificate din browser-ul dispozitivului dumneavoastră.

În anumite scopuri, interesele legitime pot prima asupra consimțământului. Puteți citi mai multe informații în acest sens în Politica privind Confidențialitatea Datelor și Cookie.